When you browse on this site, cookies collect data to enhance your experience and personalize the content and advertising you see.
Visit our Privacy Policy to learn more. By continuing to use the site, you agree to this use of cookies and data.
  • în România
  • Lista ţărilor
  • Pe 7 zile
  • Temperatura apei
  • Meteo pe hartă
  • Widget-uri
  • user-avatar
    Intrare

    Meteo pe oră la

    Astăzi, 27 Mai, Miercuri

    Timp Temperatura Precipitaţii Vânt Presiune Umiditate
    00:00 +8°C° 0 mm 1 m/s 707 mmHg 97%
    01:00 +8°C° 0 mm 1 m/s 707 mmHg 97%
    02:00 +7°C° 0 mm 1 m/s 707 mmHg 97%
    03:00 +6°C° 0 mm 0 m/s 707 mmHg 97%
    04:00 +6°C° 0 mm 0 m/s 707 mmHg 97%
    05:00 +6°C° 0 mm 0 m/s 707 mmHg 97%
    06:00 +6°C° 0 mm 0 m/s 706 mmHg 97%
    07:00 +7°C° 0 mm 0 m/s 707 mmHg 94%
    08:00 +8°C° 0 mm 0 m/s 708 mmHg 91%
    09:00 +10°C° 0 mm 1 m/s 709 mmHg 89%
    10:00 +12°C° 0 mm 1 m/s 709 mmHg 81%
    11:00 +14°C° 0 mm 1 m/s 709 mmHg 73%
    12:00 +16°C° 0 mm 1 m/s 709 mmHg 66%
    13:00 +18°C° 0 mm 1 m/s 708 mmHg 64%
    14:00 +18°C° 0 mm 1 m/s 708 mmHg 63%
    15:00 +19°C° 0 mm 1 m/s 708 mmHg 62%
    16:00 +16°C° 0 mm 1 m/s 708 mmHg 69%
    17:00 +14°C° 0 mm 1 m/s 707 mmHg 77%
    18:00 +13°C° 0 mm 1 m/s 707 mmHg 84%
    19:00 +12°C° 0 mm 1 m/s 707 mmHg 85%
    20:00 +12°C° 0 mm 1 m/s 708 mmHg 87%
    21:00 +10°C° 0 mm 2 m/s 708 mmHg 88%
    22:00 +10°C° 0 mm 2 m/s 708 mmHg 87%
    23:00 +10°C° 0 mm 2 m/s 708 mmHg 87%

    Mâine, 28 Mai, Joi

    Timp Temperatura Precipitaţii Vânt Presiune Umiditate
    00:00 +10°C° 0 mm 2 m/s 708 mmHg 87%
    01:00 +9°C° 0 mm 2 m/s 708 mmHg 85%
    02:00 +9°C° 0 mm 2 m/s 707 mmHg 83%
    03:00 +9°C° 0 mm 3 m/s 707 mmHg 81%
    04:00 +9°C° 0 mm 3 m/s 707 mmHg 80%
    05:00 +9°C° 0 mm 3 m/s 707 mmHg 78%
    06:00 +8°C° 0 mm 3 m/s 707 mmHg 76%
    07:00 +9°C° 0 mm 3 m/s 708 mmHg 75%
    08:00 +11°C° 0 mm 3 m/s 708 mmHg 73%
    09:00 +12°C° 0 mm 3 m/s 708 mmHg 72%
    10:00 +14°C° 0 mm 3 m/s 708 mmHg 68%
    11:00 +17°C° 0 mm 3 m/s 708 mmHg 65%
    12:00 +19°C° 0 mm 3 m/s 708 mmHg 61%
    13:00 +20°C° 0 mm 3 m/s 708 mmHg 60%
    14:00 +20°C° 0 mm 2 m/s 708 mmHg 60%
    15:00 +21°C° 0 mm 2 m/s 707 mmHg 59%
    16:00 +19°C° 0 mm 2 m/s 707 mmHg 66%
    17:00 +17°C° 0 mm 2 m/s 707 mmHg 72%
    18:00 +15°C° 0 mm 2 m/s 707 mmHg 79%
    19:00 +14°C° 0 mm 2 m/s 707 mmHg 78%
    20:00 +14°C° 0 mm 2 m/s 707 mmHg 76%
    21:00 +13°C° 0 mm 2 m/s 707 mmHg 74%
    22:00 +13°C° 0 mm 2 m/s 707 mmHg 77%
    23:00 +12°C° 0 mm 2 m/s 707 mmHg 79%

    Poimâine, 29 Mai, Vineri

    Timp Temperatura Precipitaţii Vânt Presiune Umiditate
    00:00 +12°C° 0 mm 2 m/s 707 mmHg 82%
    01:00 +10°C° 0 mm 3 m/s 707 mmHg 83%
    02:00 +10°C° 0 mm 3 m/s 706 mmHg 83%
    03:00 +10°C° 0 mm 3 m/s 706 mmHg 84%
    04:00 +9°C° 0 mm 2 m/s 706 mmHg 84%
    05:00 +9°C° 0 mm 2 m/s 707 mmHg 83%
    06:00 +9°C° 0 mm 2 m/s 707 mmHg 83%
    07:00 +10°C° 0 mm 2 m/s 707 mmHg 80%
    08:00 +12°C° 0 mm 2 m/s 707 mmHg 77%
    09:00 +13°C° 0 mm 2 m/s 708 mmHg 74%
    10:00 +15°C° 0 mm 2 m/s 708 mmHg 69%
    11:00 +17°C° 0 mm 2 m/s 708 mmHg 64%
    12:00 +19°C° 0 mm 3 m/s 708 mmHg 59%
    13:00 +19°C° 0 mm 2 m/s 707 mmHg 58%
    14:00 +20°C° 0 mm 2 m/s 707 mmHg 57%
    15:00 +21°C° 0 mm 2 m/s 706 mmHg 56%
    16:00 +19°C° 0 mm 2 m/s 706 mmHg 63%
    17:00 +18°C° 0 mm 1 m/s 706 mmHg 70%
    18:00 +15°C° 0 mm 1 m/s 705 mmHg 77%
    19:00 +14°C° 0 mm 1 m/s 706 mmHg 78%
    20:00 +14°C° 0 mm 1 m/s 706 mmHg 80%
    21:00 +13°C° 0 mm 1 m/s 706 mmHg 82%
    22:00 +13°C° 0 mm 2 m/s 706 mmHg 82%
    23:00 +12°C° 0 mm 2 m/s 706 mmHg 82%

    30 Mai, Sâmbătă

    Timp Temperatura Precipitaţii Vânt Presiune Umiditate
    00:00 +12°C° 0 mm 2 m/s 706 mmHg 83%
    01:00 +12°C° 0 mm 2 m/s 706 mmHg 84%
    02:00 +10°C° 0 mm 2 m/s 706 mmHg 85%
    03:00 +10°C° 0 mm 2 m/s 706 mmHg 86%
    04:00 +10°C° 0 mm 2 m/s 706 mmHg 86%
    05:00 +10°C° 0 mm 2 m/s 706 mmHg 87%
    06:00 +9°C° 0 mm 2 m/s 706 mmHg 88%
    07:00 +10°C° 0 mm 2 m/s 706 mmHg 85%
    08:00 +12°C° 0 mm 2 m/s 707 mmHg 83%
    09:00 +12°C° 0 mm 3 m/s 707 mmHg 80%
    10:00 +16°C° 0 mm 3 m/s 707 mmHg 75%
    11:00 +18°C° 0 mm 3 m/s 707 mmHg 71%
    12:00 +20°C° 0 mm 4 m/s 708 mmHg 66%
    13:00 +20°C° 0 mm 4 m/s 707 mmHg 66%
    14:00 +21°C° 0 mm 4 m/s 706 mmHg 66%
    15:00 +21°C° 0 mm 4 m/s 706 mmHg 66%
    16:00 +19°C° 0 mm 3 m/s 705 mmHg 73%
    17:00 +18°C° 0 mm 2 m/s 705 mmHg 81%
    18:00 +16°C° 0 mm 2 m/s 705 mmHg 88%
    19:00 +16°C° 0 mm 2 m/s 705 mmHg 89%
    20:00 +15°C° 0 mm 2 m/s 705 mmHg 89%
    21:00 +15°C° 0 mm 2 m/s 705 mmHg 90%
    22:00 +14°C° 0 mm 1 m/s 705 mmHg 91%
    23:00 +14°C° 0 mm 1 m/s 705 mmHg 91%

    31 Mai, Duminică

    Timp Temperatura Precipitaţii Vânt Presiune Umiditate
    00:00 +14°C° 0 mm 1 m/s 705 mmHg 92%
    01:00 +14°C° 0 mm 1 m/s 705 mmHg 92%
    02:00 +14°C° 0 mm 2 m/s 705 mmHg 93%
    03:00 +13°C° 0 mm 2 m/s 705 mmHg 94%
    04:00 +14°C° 0 mm 2 m/s 705 mmHg 95%
    05:00 +14°C° 0 mm 2 m/s 705 mmHg 96%
    06:00 +13°C° 0 mm 3 m/s 706 mmHg 96%
    07:00 +13°C° 0 mm 3 m/s 706 mmHg 95%
    08:00 +13°C° 0 mm 3 m/s 707 mmHg 94%
    09:00 +13°C° 0 mm 4 m/s 707 mmHg 92%
    10:00 +13°C° 0 mm 3 m/s 707 mmHg 87%
    11:00 +12°C° 0 mm 3 m/s 707 mmHg 81%
    12:00 +12°C° 0 mm 3 m/s 707 mmHg 76%
    13:00 +13°C° 0 mm 3 m/s 707 mmHg 72%
    14:00 +14°C° 0 mm 3 m/s 707 mmHg 68%
    15:00 +14°C° 0 mm 3 m/s 707 mmHg 64%
    16:00 +14°C° 0 mm 2 m/s 707 mmHg 68%
    17:00 +13°C° 0 mm 2 m/s 707 mmHg 71%
    18:00 +12°C° 0 mm 2 m/s 707 mmHg 75%
    19:00 +10°C° 0 mm 2 m/s 707 mmHg 77%
    20:00 +9°C° 0 mm 2 m/s 707 mmHg 79%
    21:00 +9°C° 0 mm 2 m/s 707 mmHg 80%
    22:00 +9°C° 0 mm 2 m/s 707 mmHg 81%
    23:00 +9°C° 0 mm 2 m/s 707 mmHg 81%

    1 Iunie, Luni

    Timp Temperatura Precipitaţii Vânt Presiune Umiditate
    00:00 +9°C° 0 mm 2 m/s 707 mmHg 81%
    01:00 +9°C° 0 mm 2 m/s 707 mmHg 81%
    02:00 +9°C° 0 mm 2 m/s 707 mmHg 81%
    03:00 +9°C° 0 mm 2 m/s 707 mmHg 81%
    04:00 +9°C° 0 mm 2 m/s 706 mmHg 81%
    05:00 +9°C° 0 mm 3 m/s 706 mmHg 82%
    06:00 +9°C° 0 mm 3 m/s 706 mmHg 83%
    07:00 +9°C° 0 mm 3 m/s 706 mmHg 82%
    08:00 +9°C° 0 mm 2 m/s 707 mmHg 82%
    09:00 +10°C° 0 mm 2 m/s 707 mmHg 81%
    10:00 +10°C° 0.2 mm 2 m/s 707 mmHg 83%
    11:00 +10°C° 0.2 mm 2 m/s 707 mmHg 84%
    12:00 +10°C° 0.2 mm 2 m/s 707 mmHg 86%
    13:00 +10°C° 0.2 mm 2 m/s 706 mmHg 87%
    14:00 +10°C° 0.2 mm 3 m/s 706 mmHg 87%
    15:00 +10°C° 0.2 mm 3 m/s 705 mmHg 88%
    16:00 +10°C° 0.2 mm 3 m/s 705 mmHg 90%
    17:00 +10°C° 0.2 mm 3 m/s 706 mmHg 92%
    18:00 +10°C° 0.2 mm 2 m/s 706 mmHg 94%
    19:00 +10°C° 0.1 mm 2 m/s 706 mmHg 94%
    20:00 +10°C° 0.1 mm 3 m/s 706 mmHg 95%
    21:00 +10°C° 0.1 mm 3 m/s 706 mmHg 96%
    22:00 +10°C° 0 mm 3 m/s 706 mmHg 95%
    23:00 +10°C° 0 mm 3 m/s 706 mmHg 95%
    Arată mai mult